Find Starlink 32342

NORAD ID: 61217 Int'l Des: 2024-171 Owner: SPXS Country: US Constellation: starlink operational
LEOCIRCULAR

リアルタイム位置

3D地球を読み込み中...

Starlink 32342について

説明を読み込み中...

次回通過

Passes for default location (London). Set your location on the main map for personalized predictions.

高度履歴

Loading altitude history...

軌道要素

1 61217U 24171T 26125.08869028 .00001850 00000-0 74591-4 0 9993
2 61217 53.1619 60.4581 0001282 86.9411 273.1736 15.30187546 91919
Epoch: May 5, 2026 • Age: 11 hours

現在のステータス

高度 480.9 km
速度 7.63 km/s
衛星直下点 53.26°N, 78.97°E
打ち上げ日 Sep 20, 2024
運用期間 1.6 years
タイプ internet

技術仕様

分類 Payload
質量 730.00 kg
乾燥質量 700.00 kg
総質量 730.00 kg
長さ 0.30 m
直径 4.10 m
スパン 29.00 m
形状 Box + pan
製造者 SPXS
バスタイプ Starlink V2M
フェーズステータス In Orbit
所有者/国 SPXS/US

Most Searched